Flag for South Africa Weather past 2 weeks in Stellenbosch, South Africa

Now
57 °F

Passing clouds.


Feels Like: 55 °F
Forecast: 51 / 66 °F
Wind: 10 mph from Northwest

Location: Cape Town International Airport

Current Time: Apr 28, 2015 at 10:44:39 PM

Latest Report: Apr 28, 2015 at 10:00 PM


Visibility: N/A

Pressure: 30.01 "Hg

Humidity: 88%

Dew point: 54 °F

Location of StellenboschLocation

Historic Weather in Stellenbosch — Graph

°F

Stellenbosch temperature yesterday

Maximum temperature yesterday: 73 °F (at 2:00 PM)
Minimum temperature yesterday: 52 °F (at 7:00 AM)
Average temperature yesterday: 62 °F

Past Weeks' High & Low Weather Summary

 TemperatureHumidityPressure
High82 °F (Apr 24, 2:00 PM)100% (Apr 20, 1:00 AM)30.36 "Hg (Apr 20, 1:00 AM)
Low46 °F (Apr 16, 6:00 AM)24% (Apr 19, 2:00 PM)29.92 "Hg (Apr 28, 3:00 AM)
Average62 °F71%30.12 "Hg
* Reported Apr 13 9:00 PM — Apr 28 9:00 PM, Stellenbosch, Weather by CustomWeather, © 2015

Note: Actual official high and low records may vary slightly from our data, if they occured in-between our weather recording intervals... More about our weather records

Advertising

Stellenbosch weather history for previous 24 hours

 ConditionsComfort  
Time TempWeatherWind HumidityBarometerVisibility
9:00 PM
Tue, Apr 28
59 °FClear.7 mph82%29.98 "Hg10 mi
8:00 PM59 °FClear.7 mph82%29.98 "Hg10 mi
7:00 PM59 °FPassing clouds.7 mph82%29.98 "HgN/A
6:00 PM61 °FClear.15 mph83%29.95 "Hg10 mi
5:00 PM64 °FPassing clouds.13 mph73%29.92 "HgN/A
4:00 PM66 °FPassing clouds.15 mph68%29.95 "HgN/A
3:00 PM66 °FPassing clouds.12 mph68%29.92 "HgN/A
2:00 PM64 °FPassing clouds.12 mph68%29.95 "HgN/A
1:00 PM64 °FSunny.20 mph68%29.95 "Hg10 mi
12:00 PM66 °FSunny.20 mph56%29.95 "Hg10 mi
11:00 AM68 °FSunny.9 mph49%29.95 "Hg10 mi
10:00 AM66 °FSunny.6 mph56%29.95 "Hg10 mi
9:00 AM59 °FSunny.6 mph77%29.95 "Hg10 mi
8:00 AM52 °FSunny.8 mph94%29.92 "Hg10 mi
7:00 AM52 °FFog.5 mph88%29.95 "Hg2 mi
6:00 AM52 °FClear.2 mph94%29.92 "Hg10 mi
5:00 AM50 °FClear.5 mph94%29.92 "Hg6 mi
4:00 AM52 °FClear.3 mph94%29.92 "Hg4 mi
3:00 AM52 °FClear.2 mph94%29.92 "Hg6 mi
2:00 AM52 °FClear.1 mph94%29.95 "Hg10 mi
1:00 AM54 °FClear.2 mph94%29.95 "Hg10 mi
12:00 AM52 °FClear.3 mph94%29.98 "Hg10 mi
11:00 PM
Mon, Apr 27
55 °FClear.1 mph88%29.98 "Hg10 mi
10:00 PM59 °FPassing clouds.5 mph82%29.98 "HgN/A
Weather by CustomWeather, © 2015

See weather overviewHow to use our weather pages